Regional Weather Roundup
Issued by NWS

Home | Current Version | Previous Version | Text Only | Print | Product List | Glossary On
Versions: 1 2 3 4 5 6 7 8 9 10 11 12 13 14 15 16 17 18 19 20 21 22 23 24 25 26 27 28 29 30 31 32 33 34 35 36 37 38 39 40 41 42 43 44 45 46 47 48 49 50
000
ASUS43 KOAX 031410
RWRNE

WEATHER ROUNDUP FOR NEBRASKA
NATIONAL WEATHER SERVICE OMAHA NE
900 AM CDT SUN MAY 03 2015

NOTES: SATELLITE DATA IS BEING USED TO AUGMENT CLOUD COVER ABOVE
       12000 FEET.
       "FAIR" INDICATES FEW OR NO CLOUDS BELOW 12,000 FEET WITH NO
       SIGNIFICANT WEATHER AND/OR OBSTRUCTIONS TO VISIBILITY.

  * THESE STATIONS DO NOT REPORT WEATHER SUCH AS RAIN...SNOW OR FOG.

NEZ001>004-019>022-054>056-031500-
NEBRASKA PANHANDLE

CITY           SKY/WX    TMP DP  RH WIND       PRES   REMARKS
SCOTTSBLUFF    SUNNY     59  43  55 NW9       29.88R
ALLIANCE       PTSUNNY   56  42  59 N12       29.87R
CHADRON        MOSUNNY   54  37  52 NE14      29.93R
KIMBALL        SUNNY     58  41  52 W12       29.91R
SIDNEY         SUNNY     60  43  53 NW13      29.89R
$$

NEZ057>060-069>072-079>082-031500-
SOUTHWEST NEBRASKA

CITY           SKY/WX    TMP DP  RH WIND       PRES   REMARKS
NORTH PLATTE   MOSUNNY   63  51  65 W8        29.79R
IMPERIAL       SUNNY     65  44  46 W13       29.82R
LEXINGTON      MOSUNNY   63  50  61 W5        29.77R
MCCOOK         SUNNY     64  47  53 SW8       29.82R
OGALLALA       MOSUNNY   61  47  61 W10       29.82R
$$

NEZ005>010-023>029-035>040-094-031500-
NORTH CENTRAL NEBRASKA

CITY           SKY/WX    TMP DP  RH WIND       PRES   REMARKS
VALENTINE      MOSUNNY   59  43  55 N17       29.78R
AINSWORTH      MOSUNNY   61  46  57 N17       29.75S
BROKEN BOW     PTSUNNY   71  45  39 VRB5      29.75R
O`NEILL        MOSUNNY   62  52  71 CALM      29.71F
ORD            MOSUNNY   61  49  64 S5        29.72R
THEDFORD       PTSUNNY   64  46  53 W8        29.77R
$$

NEZ041-046>049-061>064-073>077-083>087-031500-
SOUTH CENTRAL NEBRASKA

CITY           SKY/WX    TMP DP  RH WIND       PRES   REMARKS
GRAND ISLAND   SUNNY     64  53  67 S14       29.75R
AURORA         SUNNY     65  56  72 S17G24    29.76R
HASTINGS       FAIR      61  52  72 S7        29.77R
HEBRON         MOSUNNY   66  54  66 SW10      29.77R
HOLDREGE       MOSUNNY   69  44  40 SW9       29.78R
KEARNEY *      SUNNY     66  46  48 SW8       29.76S
YORK           SUNNY     66  55  68 S14       29.74F
$$

NEZ011>018-030>034-042>045-031500-
NORTHEAST NEBRASKA

CITY           SKY/WX    TMP DP  RH WIND       PRES   REMARKS
NORFOLK        SUNNY     66  56  70 S10       29.72R
ALBION         SUNNY     62  55  76 S9        29.73S
BLAIR          SUNNY     65  57  74 S16       29.75R
COLUMBUS *     SUNNY     64  54  68 S12       29.75S
FREMONT        MOSUNNY   67  57  71 S10       29.75S
TEKAMAH        MOSUNNY   68  59  73 S17       29.74R
WAYNE          MOSUNNY   66  56  70 S18       29.73S
$$

NEZ050>053-065>068-078-088>093-031500-
SOUTHEAST NEBRASKA

CITY           SKY/WX    TMP DP  RH WIND       PRES   REMARKS
LINCOLN        MOSUNNY   68  57  68 S16       29.75S
OMAHA EPPLEY   PTSUNNY   67  58  72 S13       29.75S
BEATRICE       MOSUNNY   66  56  70 S13G21    29.77F
FALLS CITY     MOSUNNY   67  56  67 S15G24    29.80S
NEBRASKA CITY  MOSUNNY   67  54  62 S21       29.78S
PLATTSMOUTH    SUNNY     67  57  70 S21       29.76S
$$

NEZ044-045-051>053-067-031500-
OMAHA AREA

CITY           SKY/WX    TMP DP  RH WIND       PRES   REMARKS
OMAHA EPPLEY   PTSUNNY   67  58  72 S13       29.75S
BLAIR          SUNNY     65  57  74 S16       29.75R
FREMONT        MOSUNNY   67  57  71 S10       29.75S
MILLARD        SUNNY     67  58  72 S10       29.75S
OFFUTT AFB     SUNNY     67  58  72 S12       29.75S
PLATTSMOUTH    SUNNY     67  57  70 S21       29.76S
WAHOO          FAIR      65  56  72 S12G18    29.74S
$$



USA.gov is the U.S. government's official web portal to all federal, state and local government web resources and services.